TimeCST,TemperatureF,Dew PointF,Humidity,Sea Level PressureIn,VisibilityMPH,Wind Direction,Wind SpeedMPH,Gust SpeedMPH,PrecipitationIn,Events,Conditions,WindDirDegrees,DateUTC
12:15 AM,33.8,32.0,93,30.23,4.0,WSW,4.6,-,N/A,,Clear,240,2013-01-20 06:15:00
12:35 AM,32.0,30.2,93,30.23,4.0,Calm,Calm,-,N/A,,Clear,0,2013-01-20 06:35:00
12:55 AM,32.0,30.2,93,30.23,3.0,Calm,Calm,-,N/A,,Clear,0,2013-01-20 06:55:00
1:15 AM,32.0,30.2,93,30.23,4.0,Calm,Calm,-,N/A,,Clear,0,2013-01-20 07:15:00
1:35 AM,32.0,30.2,93,30.24,4.0,Calm,Calm,-,N/A,,Clear,0,2013-01-20 07:35:00
1:55 AM,32.0,28.4,87,30.24,4.0,Calm,Calm,-,N/A,,Clear,0,2013-01-20 07:55:00
2:15 AM,32.0,30.2,93,30.23,4.0,Calm,Calm,-,N/A,,Clear,0,2013-01-20 08:15:00
2:35 AM,32.0,28.4,87,30.23,4.0,Calm,Calm,-,N/A,,Clear,0,2013-01-20 08:35:00
2:55 AM,32.0,28.4,87,30.23,4.0,Calm,Calm,-,N/A,,Clear,0,2013-01-20 08:55:00
3:15 AM,32.0,28.4,87,30.23,4.0,Calm,Calm,-,N/A,,Clear,0,2013-01-20 09:15:00
3:55 AM,30.2,28.4,93,30.22,3.0,Calm,Calm,-,N/A,,Partly Cloudy,0,2013-01-20 09:55:00
4:15 AM,32.0,28.4,87,30.22,4.0,Calm,Calm,-,N/A,,Clear,0,2013-01-20 10:15:00
4:35 AM,32.0,28.4,87,30.22,4.0,Calm,Calm,-,N/A,,Clear,0,2013-01-20 10:35:00
4:55 AM,30.2,28.4,93,30.22,4.0,Calm,Calm,-,N/A,,Clear,0,2013-01-20 10:55:00
5:35 AM,30.2,28.4,93,30.23,4.0,Calm,Calm,-,N/A,,Clear,0,2013-01-20 11:35:00
5:55 AM,30.2,28.4,93,30.23,4.0,Calm,Calm,-,N/A,,Partly Cloudy,0,2013-01-20 11:55:00
6:15 AM,28.4,28.4,100,30.23,4.0,Calm,Calm,-,N/A,,Clear,0,2013-01-20 12:15:00
6:35 AM,28.4,28.4,100,30.23,3.0,Calm,Calm,-,N/A,,Clear,0,2013-01-20 12:35:00
6:55 AM,28.4,28.4,100,30.24,2.5,Calm,Calm,-,N/A,,Clear,0,2013-01-20 12:55:00
7:15 AM,28.4,28.4,100,30.23,2.5,Calm,Calm,-,N/A,,Clear,0,2013-01-20 13:15:00
7:35 AM,32.0,28.4,87,30.23,2.5,Calm,Calm,-,N/A,,Clear,0,2013-01-20 13:35:00
7:55 AM,32.0,30.2,93,30.24,2.5,Calm,Calm,-,N/A,,Clear,0,2013-01-20 13:55:00
8:15 AM,35.6,32.0,87,30.24,2.5,Calm,Calm,-,N/A,,Clear,0,2013-01-20 14:15:00
8:35 AM,37.4,33.8,87,30.24,3.0,Calm,Calm,-,N/A,,Clear,0,2013-01-20 14:35:00
8:55 AM,41.0,37.4,87,30.25,3.0,Calm,Calm,-,N/A,,Haze,0,2013-01-20 14:55:00
9:15 AM,44.6,37.4,76,30.25,3.0,South,3.5,-,N/A,,Haze,170,2013-01-20 15:15:00
9:35 AM,46.4,37.4,71,30.24,3.0,South,3.5,-,N/A,,Haze,180,2013-01-20 15:35:00
9:55 AM,48.2,37.4,66,30.24,4.0,SSE,4.6,-,N/A,,Haze,160,2013-01-20 15:55:00
10:15 AM,48.2,37.4,66,30.24,4.0,Calm,Calm,-,N/A,,Haze,0,2013-01-20 16:15:00
10:55 AM,51.8,35.6,54,30.23,4.0,East,3.5,-,N/A,,Haze,100,2013-01-20 16:55:00
11:15 AM,53.6,35.6,51,30.22,4.0,ENE,3.5,-,N/A,,Haze,70,2013-01-20 17:15:00
11:35 AM,53.6,35.6,51,30.21,4.0,North,4.6,-,N/A,,Haze,10,2013-01-20 17:35:00
11:55 AM,55.4,35.6,47,30.20,5.0,Calm,Calm,-,N/A,,Haze,0,2013-01-20 17:55:00
12:15 PM,55.4,35.6,47,30.19,4.0,Calm,Calm,-,N/A,,Haze,0,2013-01-20 18:15:00
12:35 PM,55.4,37.4,51,30.17,4.0,South,4.6,-,N/A,,Haze,190,2013-01-20 18:35:00
12:55 PM,55.4,35.6,47,30.16,4.0,SSW,4.6,-,N/A,,Haze,210,2013-01-20 18:55:00
1:15 PM,55.4,35.6,47,30.16,3.0,SSE,5.8,-,N/A,,Haze,160,2013-01-20 19:15:00
1:35 PM,55.4,37.4,51,30.15,4.0,SSE,3.5,-,N/A,,Haze,150,2013-01-20 19:35:00
1:55 PM,57.2,37.4,48,30.14,4.0,South,6.9,-,N/A,,Haze,190,2013-01-20 19:55:00
2:15 PM,57.2,35.6,44,30.15,4.0,South,6.9,-,N/A,,Haze,190,2013-01-20 20:15:00
2:35 PM,57.2,35.6,44,30.15,4.0,South,8.1,-,N/A,,Haze,190,2013-01-20 20:35:00
2:55 PM,57.2,37.4,48,30.14,4.0,South,8.1,-,N/A,,Haze,190,2013-01-20 20:55:00
3:15 PM,57.2,37.4,48,30.15,4.0,SSW,8.1,-,N/A,,Haze,200,2013-01-20 21:15:00
3:35 PM,57.2,35.6,44,30.14,3.0,South,6.9,-,N/A,,Haze,190,2013-01-20 21:35:00
3:55 PM,57.2,35.6,44,30.14,3.0,SSW,6.9,-,N/A,,Haze,200,2013-01-20 21:55:00
4:15 PM,57.2,37.4,48,30.14,4.0,South,4.6,-,N/A,,Haze,190,2013-01-20 22:15:00
4:35 PM,55.4,35.6,47,30.14,4.0,Calm,Calm,-,N/A,,Haze,0,2013-01-20 22:35:00
4:55 PM,55.4,33.8,44,30.14,4.0,NW,4.6,-,N/A,,Haze,310,2013-01-20 22:55:00
5:15 PM,50.0,37.4,62,30.15,5.0,North,3.5,-,N/A,,Haze,350,2013-01-20 23:15:00
5:35 PM,50.0,35.6,58,30.15,5.0,NNW,3.5,-,N/A,,Haze,340,2013-01-20 23:35:00
5:55 PM,48.2,35.6,62,30.15,5.0,Calm,Calm,-,N/A,,Haze,0,2013-01-20 23:55:00
6:15 PM,44.6,35.6,71,30.16,5.0,Calm,Calm,-,N/A,,Haze,0,2013-01-21 00:15:00
6:35 PM,42.8,35.6,76,30.16,5.0,Calm,Calm,-,N/A,,Haze,0,2013-01-21 00:35:00
6:55 PM,41.0,35.6,81,30.16,5.0,Calm,Calm,-,N/A,,Haze,0,2013-01-21 00:55:00
7:15 PM,41.0,35.6,81,30.16,5.0,Calm,Calm,-,N/A,,Haze,0,2013-01-21 01:15:00
7:35 PM,39.2,35.6,87,30.16,5.0,Calm,Calm,-,N/A,,Clear,0,2013-01-21 01:35:00
7:55 PM,39.2,35.6,87,30.16,5.0,Calm,Calm,-,N/A,,Clear,0,2013-01-21 01:55:00
8:15 PM,39.2,35.6,87,30.16,5.0,Calm,Calm,-,N/A,,Clear,0,2013-01-21 02:15:00
8:55 PM,37.4,33.8,87,30.15,5.0,Calm,Calm,-,N/A,,Clear,0,2013-01-21 02:55:00
9:15 PM,37.4,32.0,81,30.16,5.0,Calm,Calm,-,N/A,,Clear,0,2013-01-21 03:15:00
9:35 PM,35.6,32.0,87,30.16,5.0,Calm,Calm,-,N/A,,Clear,0,2013-01-21 03:35:00
9:55 PM,35.6,32.0,87,30.16,4.0,Calm,Calm,-,N/A,,Clear,0,2013-01-21 03:55:00
10:15 PM,33.8,32.0,93,30.16,5.0,Calm,Calm,-,N/A,,Clear,0,2013-01-21 04:15:00
10:35 PM,33.8,32.0,93,30.16,5.0,Calm,Calm,-,N/A,,Clear,0,2013-01-21 04:35:00
10:55 PM,32.0,32.0,100,30.15,5.0,Calm,Calm,-,N/A,,Clear,0,2013-01-21 04:55:00
11:15 PM,32.0,32.0,100,30.15,5.0,Calm,Calm,-,N/A,,Clear,0,2013-01-21 05:15:00
11:55 PM,32.0,30.2,93,30.15,5.0,Calm,Calm,-,N/A,,Clear,0,2013-01-21 05:55:00